Location: Campillo
(40.8621°N, 4.2488°W)
Time: 13:06:35
(UTC+00:00)

Cosmos 2278 Rocket - Pass Details

Date: 11 May 2021
Orbit: 842 x 845 km, 71.0° (Epoch: 13 June)

Event Time Altitude Azimuth Distance (km) Brightness Sun altitude
Exits shadow 20:16:58 - 156° (SSE) 2,730 4.3 -9.5°
Reaches altitude 10° 20:17:53 10° 151° (SSE) 2,452 4.1 -9.7°
Maximum altitude 20:22:10 23° 101° (E) 1,730 3.3 -10.4°
Drops below altitude 10° 20:26:27 10° 51° (NE) 2,464 4.5 -11.0°
Sets 20:29:22 0° 38° (NE) 3,404 5.3 -11.5°
